#timestamp,LO_Frequency,Hit,StdDev 
1629648015.2,286046997.1,N
1629648035.0,286046998.9,N
1629648036.0,286046998.9,N
1629648055.8,286046996.8,N
1629648075.6,286046999.4,N
1629648095.5,286047001.0,N
1629648115.3,286047002.1,N
1629648135.2,286047002.8,N
1629648155.9,286047001.5,N
1629648175.7,286047000.1,N
1629648195.6,286047001.0,N
1629648215.4,286047000.4,N
1629648235.2,286047000.4,N
1629648255.1,286047002.8,N
1629648256.0,286047002.8,N
1629648275.8,286047002.2,N
1629648295.7,286047002.4,N
1629648315.5,286047000.8,N
1629648335.3,286047002.8,N
1629648355.2,286047002.6,N
1629648375.0,286047002.2,N
1629648375.9,286047002.2,N
1629648395.7,286047002.5,N
1629648415.6,286047000.2,N
1629648435.4,286047002.3,N
1629648455.3,286047002.6,N
1629648475.1,286047000.9,N
1629648476.0,286047000.9,N
1629648495.8,286046999.6,N
1629648515.7,286046997.4,N
1629648535.5,286046996.9,N
1629648555.4,286046997.8,N
1629648575.2,286046996.6,N
1629648595.0,286046996.9,N
1629648595.9,286046996.9,N
1629648615.8,286046997.3,N
1629648635.6,286046998.3,N
1629648655.4,286047000.6,N
1629648675.3,286047002.5,N
1629648695.1,286047002.0,N
1629648715.9,286047002.0,N
1629648735.7,286047003.9,N
1629648755.5,286047004.4,N
1629648775.4,286047003.9,N
1629648795.2,286047001.4,N
1629648815.0,286047004.3,N
1629648816.0,286047004.3,N
1629648835.8,286047001.7,N
1629648855.6,286047001.7,N
1629648875.5,286047003.7,N
1629648895.3,286047004.1,N
1629648915.1,286047001.9,N
1629648935.9,286047002.4,N
1629648955.7,286047004.3,N
1629648975.6,286047003.9,N
1629648995.1,286047004.0,N
1629648996.0,286047004.0,N
1629649015.8,286047003.7,N
1629649035.7,286047005.9,N
1629649055.5,286047004.0,N
1629649075.3,286047003.6,N
1629649095.2,286047004.4,N
1629649115.0,286047001.7,N
1629649115.9,286047001.7,N
1629649135.8,286047002.5,N
1629649155.6,286047000.5,N
1629649175.4,286047000.6,N
1629649195.3,286047000.1,N
1629649215.1,286047002.4,N
1629649235.8,286047002.8,N
1629649255.7,286047002.8,N
1629649275.5,286047002.5,N
1629649295.4,286047002.3,N
1629649315.2,286046999.8,N
1629649335.0,286046998.5,N
1629649335.9,286046998.5,N
1629649355.8,286046998.6,N
1629649375.6,286046998.9,N
1629649395.4,286046998.5,N
1629649415.3,286047001.2,N
1629649435.1,286047000.8,N
1629649455.9,286047000.7,N
1629649475.7,286047000.8,N
1629649495.5,286047001.0,N
1629649515.4,286047001.0,N
1629649535.2,286046998.8,N
1629649555.0,286046998.5,N
1629649555.9,286046998.5,N
1629649575.8,286046998.1,N
1629649595.6,286047001.1,N
1629649615.5,286046998.3,N
1629649635.3,286047001.0,N
1629649655.1,286047000.8,N
1629649675.9,286046999.4,N
1629649695.7,286046998.8,N
1629649715.6,286046999.0,N
1629649735.4,286046999.1,N
1629649755.2,286046998.2,N
1629649775.1,286046998.1,N
1629649776.0,286046998.1,N
1629649795.8,286046998.7,N
1629649815.6,286046999.0,N
1629649835.5,286046998.4,N
1629649855.3,286046998.6,N
1629649875.2,286046999.4,N
1629649895.9,286046999.0,N
1629649915.7,286046996.5,Y
1629649935.6,286046999.1,P
1629649955.4,286046996.5,P
1629649975.2,286046999.2,N
1629649995.1,286046997.5,N
1629649996.0,286046997.5,N
1629650015.8,286046999.6,N
1629650035.7,286046997.4,N
1629650055.5,286046997.3,N
1629650075.4,286046996.7,Y
1629650095.2,286046999.4,P
1629650115.0,286046998.8,N
1629650115.9,286046998.8,N
1629650135.8,286046998.8,N
1629650155.6,286046998.4,Y
1629650175.4,286047000.4,P
1629650195.3,286047000.2,N
1629650215.1,286047000.0,N
1629650235.9,286047000.4,N
1629650255.7,286046999.9,N
1629650275.5,286047001.1,N
1629650295.4,286046998.6,N
1629650315.2,286047001.2,N
1629650335.0,286046998.6,N
1629650335.9,286046998.6,N
1629650355.8,286046998.5,N
1629650375.6,286046998.1,N
1629650395.5,286046998.1,N
1629650415.3,286047001.2,N
1629650435.1,286047000.8,N
1629650455.9,286047001.0,N
1629650475.7,286047000.7,N
1629650495.5,286047001.2,N
1629650515.4,286047001.2,N
1629650535.2,286046998.5,N
1629650555.1,286046998.4,N
1629650556.0,286046998.4,N
1629650575.8,286047001.1,N
1629650595.6,286046998.1,N
1629650615.5,286047000.7,N
1629650635.3,286047000.8,N
1629650655.1,286047000.7,N
1629650675.9,286047000.3,N
1629650695.7,286047001.0,N
1629650715.6,286046998.6,N
1629650735.4,286047000.2,N
1629650755.2,286046999.9,N
1629650775.1,286047000.0,N
1629650776.0,286047000.0,N
1629650795.8,286047000.1,N
1629650815.6,286047000.2,N
1629650835.5,286047002.8,N
1629650855.3,286046999.8,N
1629650875.2,286047000.4,N
1629650895.9,286047000.8,N
1629650915.2,286047001.0,N
1629650935.1,286047000.0,N
1629650936.0,286047000.0,N
1629650955.8,286047000.1,N
1629650975.6,286047000.8,N
1629650995.5,286047000.4,N
1629651015.3,286047001.1,N
1629651035.2,286046998.2,N
1629651055.9,286046998.1,N
1629651075.7,286047000.2,N
1629651095.6,286047000.4,N
1629651115.4,286046999.8,N
1629651135.3,286047000.3,N
1629651155.1,286047000.2,N
1629651156.0,286047000.2,N
1629651175.8,286046999.8,N
1629651195.7,286047000.1,N
1629651215.5,286047000.3,N
1629651235.4,286047000.8,N
1629651255.2,286046999.8,N
1629651275.0,286047001.0,N
1629651275.9,286047001.0,N
1629651295.8,286047001.0,N
1629651315.6,286046998.3,N
1629651335.4,286046997.0,Y
1629651355.3,286046997.9,P
1629651375.1,286046994.9,P
1629651395.9,286046998.0,N
1629651415.7,286046995.2,N
1629651435.5,286046995.0,N
1629651455.4,286046995.3,N
1629651475.2,286046997.0,N
1629651495.0,286046996.7,N
1629651496.0,286046996.7,N
1629651515.8,286046995.3,N
1629651535.6,286046995.9,N
1629651555.5,286046993.9,Y
1629651575.3,286046997.3,P
1629651595.1,286046995.3,P
